Showing default

ALMUNTHER, 63240

Orbit data source: Space-Track

ALMUNTHER, 63240 is a Bahraini payload satellite in SSO that was launched on Sat, 15 Mar 2025 UTC via an FALCON 9 launch vehicle from the Air Force Western Test Range (AFWTR). Payload-class satellites include a variety of spacecraft equipped with specific instruments for various scientific and technological missions. These include communications satellites like Starlink; space stations such as the ISS; scientific satellites like the Hubble; Earth observation satellites from companies like Planet Labs, Umbra, and HawkEye 360; GPS; miniature CubeSats for education and research; and military/defense satellites.

Loading next visibility...
Identifier
63240, 2025-052AG
Orbit
SSO
Country
Flag of BHBH / BHR
Related business
Manufacturer
AMAN/BNSSA
Mission
Operational Civil Technology
Bus & Motor
CUBESAT 3U?, Unknown motor
Mass
3 kg wet, 3 kg dry
Launch date (UTC)
2025-03-15 (1 year ago)
Launch vehicle
FALCON 9
Launch site
Air Force Western Test Range (AFWTR)
Object type
Payload
Rocket body
Debris
Shape & HBR
Box, 0.1 m
Radar Cross Section
0.035 m², Medium (>0.1 m² and < 1m²)

Expand to show TLE details & history
Last TLE update: 13 hours ago

TLE from 13 hours ago
0 ALMUNTHER
1 63240U 25052AG  26175.16412533  .00015517  00000-0  50323-3 0  9990
2 63240  97.3880  69.9538 0008395 117.4492 242.7604 15.32033684 71081
Epoch: 2026-06-24T03:56Z
TLE epoch observation values (Epoch: 2026-06-24T03:56:20.428Z)
Latitude
-0.00006°
Longitude
98.54342°
Altitude
475.488 km
Speed
7.627 km/s
True Right ascension
04h 39m 48s
True Declination
0° 00' 00"
Sunlit
Object was in daylight at epoch
Visualization orbit readout
Latitude
Unknown
Longitude
Unknown
Altitude
Unknown
Speed
Unknown
Apparent Right ascension
Unknown
Apparent Declination
Unknown
Sunlit
N/A
Visualization observer readout
Local Sidereal Time
03:41:07
Azimuth
Unknown
Elevation
Unknown
Doppler factor
Unknown
Orbital elements
Apogee altitude
472.441 km
Perigee altitude
460.948 km
Semi-major axis
6,844.832 km
Eccentricity
0.00084
Inclination
97.388°
RAAN
69.9538°
Arg. of periapsis
117.4492°
True anomaly
242.67491°
Mean anomaly
242.7604°
Eccentric anomaly
242.71765°
Mean motion
3.83265 °/min
Orbital period
93.93 mins
BSTAR
0.00050323
Loading maneuver chart data...
Computing Atmospheric mass density...
Loading historical data...
Loading historical data...
Loading historical data...
Loading historical data...
Loading historical data...
Loading historical data...
Loading historical data...

Documentation

Showing up to 5 results
|